Weather History for KPTB - December, 2012

Change the Weather History Date:

Saturday, December 22, 2012

  Actual Average (KRIC) Record (KRIC)
Temperature  
Mean Temperature 42 °F 39 °F  
Max Temperature 51 °F 49 °F 76 °F (2013)
Min Temperature 33 °F 30 °F 6 °F (1942)
Degree Days  
Heating Degree Days 23 26  
Month to date heating degree days 507  
Since 1 July heating degree days 1183  
Cooling Degree Days 0 0  
Month to date cooling degree days 0  
Year to date cooling degree days 1548  
Moisture  
Dew Point 19 °F    
Average Humidity 42    
Maximum Humidity 56    
Minimum Humidity 22    
Precipitation  
Precipitation 0.00 in 0.10 in 2.12 in (1908)
Month to date precipitation 2.37  
Year to date precipitation 42.71  
Snow  
Snow 0.00 in 0.10 in 15.00 in (1908)
Month to date snowfall 1.4  
Since 1 July snowfall 1.6  
Snow Depth -    
Sea Level Pressure  
Sea Level Pressure 29.89 in    
Wind  
Wind Speed 10 mph (WSW)    
Max Wind Speed 17 mph    
Max Gust Speed 25 mph    
Visibility 10 miles    
Events      
T = Trace of Precipitation, MM = Missing Value Source: NWS Daily Summary

Daily Weather History Graph

Daily Weather History Graph

Search for Another Location

Airport or City:

Trip Planner

Search our weather history database for the weather conditions in past years. The results will help you decide how hot, cold, wet, or windy it might be!

Date:

Astronomy

Dec. 22, 2012 Rise Set
Actual Time 7:20 AM EST 4:57 PM EST
Civil Twilight 6:51 AM EST 5:26 PM EST
Nautical Twilight 6:18 AM EST 5:58 PM EST
Astronomical Twilight 5:47 AM EST 6:30 PM EST
Moon 1:09 PM EST (12/22) 2:08 AM EST (12/22)
Length of Visible Light 10h 34m
Length of Day
9h 36m
Waxing Gibbous, 73% of the Moon is Illuminated
Dec 22
Waxing Gibbous
Dec 28
Full
Jan 4
Last Quarter
Jan 11
New
Jan 18
First Quarter

Hourly Weather History & Observations

Time (EST) Temp. Windchill Dew Point Humidity Pressure Visibility Wind Dir Wind Speed Gust Speed Precip Events Conditions
12:15 AM 35.6 °F 28.6 °F 19.4 °F 52% 29.69 in 10.0 mi SW 9.2 mph - N/A   Unknown
12:35 AM 35.6 °F 29.2 °F 21.2 °F 56% 29.69 in 10.0 mi SW 8.1 mph - N/A   Unknown
12:55 AM 35.6 °F 28.0 °F 19.4 °F 52% 29.70 in 10.0 mi SW 10.4 mph - N/A   Unknown
1:15 AM 35.6 °F 28.0 °F 21.2 °F 56% 29.70 in 10.0 mi WSW 10.4 mph - N/A   Clear
1:35 AM 35.6 °F 28.0 °F 21.2 °F 56% 29.71 in 10.0 mi WSW 10.4 mph - N/A   Clear
1:55 AM 35.6 °F 29.9 °F 19.4 °F 52% 29.72 in 10.0 mi SW 6.9 mph - N/A   Unknown
2:15 AM 35.6 °F 28.0 °F 21.2 °F 56% 29.72 in 10.0 mi WSW 10.4 mph - N/A   Unknown
2:35 AM 35.6 °F 28.0 °F 21.2 °F 56% 29.73 in 10.0 mi WSW 10.4 mph - N/A   Clear
2:55 AM 35.6 °F 27.1 °F 19.4 °F 52% 29.73 in 10.0 mi WSW 12.7 mph - N/A   Clear
3:15 AM 35.6 °F 28.0 °F 21.2 °F 56% 29.74 in 10.0 mi SW 10.4 mph - N/A   Clear
3:35 AM 35.6 °F 28.0 °F 19.4 °F 52% 29.74 in 10.0 mi SW 10.4 mph - N/A   Clear
3:55 AM 35.6 °F - 19.4 °F 52% 29.75 in 10.0 mi North - - N/A   Clear
4:15 AM 35.6 °F 28.6 °F 19.4 °F 52% 29.76 in 10.0 mi WSW 9.2 mph - N/A   Clear
4:35 AM 35.6 °F 29.2 °F 19.4 °F 52% 29.77 in 10.0 mi WSW 8.1 mph - N/A   Clear
4:55 AM 35.6 °F 28.6 °F 19.4 °F 52% 29.77 in 10.0 mi WSW 9.2 mph - N/A   Scattered Clouds
5:15 AM 37.4 °F 30.8 °F 19.4 °F 48% 29.78 in 10.0 mi WSW 9.2 mph - N/A   Scattered Clouds
5:35 AM 37.4 °F 30.3 °F 19.4 °F 48% 29.79 in 10.0 mi WSW 10.4 mph - N/A   Scattered Clouds
6:15 AM 37.4 °F 30.8 °F 21.2 °F 52% 29.81 in 10.0 mi WSW 9.2 mph - N/A   Scattered Clouds
6:35 AM 37.4 °F 32.1 °F 19.4 °F 48% 29.82 in 10.0 mi West 6.9 mph - N/A   Clear
6:55 AM 37.4 °F 32.1 °F 21.2 °F 52% 29.82 in 10.0 mi West 6.9 mph - N/A   Clear
7:15 AM 37.4 °F 29.8 °F 21.2 °F 52% 29.83 in 10.0 mi WSW 11.5 mph - N/A   Clear
7:35 AM 37.4 °F 29.3 °F 21.2 °F 52% 29.84 in 10.0 mi West 12.7 mph - N/A   Clear
7:55 AM 39.2 °F 32.5 °F 21.2 °F 49% 29.86 in 10.0 mi West 10.4 mph - N/A   Clear
8:15 AM 39.2 °F 31.2 °F 21.2 °F 49% 29.86 in 10.0 mi West 13.8 mph - N/A   Clear
8:35 AM 41.0 °F 32.5 °F 19.4 °F 42% 29.87 in 1.0 mi West 17.3 mph 21.9 mph N/A   Clear
8:55 AM 42.8 °F 35.8 °F 21.2 °F 42% 29.88 in 10.0 mi West 13.8 mph 23.0 mph N/A   Clear
9:15 AM 42.8 °F 36.2 °F 21.2 °F 42% 29.90 in 10.0 mi West 12.7 mph 20.7 mph N/A   Clear
9:35 AM 44.6 °F 38.4 °F 21.2 °F 39% 29.91 in 10.0 mi West 12.7 mph 17.3 mph N/A   Clear
9:55 AM 44.6 °F 38.1 °F 19.4 °F 37% 29.91 in 10.0 mi WNW 13.8 mph 21.9 mph N/A   Clear
10:15 AM 44.6 °F 37.8 °F 19.4 °F 37% 29.92 in 10.0 mi West 15.0 mph 23.0 mph N/A   Clear
10:35 AM 44.6 °F 37.2 °F 19.4 °F 37% 29.92 in 10.0 mi West 17.3 mph 25.3 mph N/A   Clear
10:55 AM 46.4 °F 41.1 °F 19.4 °F 34% 29.92 in 1.0 mi WNW 11.5 mph 20.7 mph N/A   Clear
11:15 AM 46.4 °F 39.5 °F 17.6 °F 32% 29.92 in 10.0 mi WNW 17.3 mph 21.9 mph N/A   Clear
11:35 AM 46.4 °F 40.1 °F 17.6 °F 32% 29.91 in 10.0 mi WNW 15.0 mph 21.9 mph N/A   Clear
11:55 AM 48.2 °F - 17.6 °F 30% 29.91 in 1.0 mi West 15.0 mph 23.0 mph N/A   Clear
12:15 PM 48.2 °F - 17.6 °F 30% 29.90 in 1.0 mi WNW 13.8 mph - N/A   Clear
12:35 PM 48.2 °F - 17.6 °F 30% 29.90 in 10.0 mi West 10.4 mph 21.9 mph N/A   Clear
12:55 PM 48.2 °F - 17.6 °F 30% 29.89 in 10.0 mi West 13.8 mph 21.9 mph N/A   Clear
1:15 PM 50.0 °F - 15.8 °F 26% 29.90 in 10.0 mi West 13.8 mph 18.4 mph N/A   Clear
1:35 PM 50.0 °F - 15.8 °F 26% 29.90 in 10.0 mi WNW 12.7 mph 16.1 mph N/A   Clear
1:55 PM 51.8 °F - 15.8 °F 24% 29.90 in 10.0 mi WNW 11.5 mph 18.4 mph N/A   Clear
2:15 PM 51.8 °F - 15.8 °F 24% 29.90 in 10.0 mi West 11.5 mph 18.4 mph N/A   Clear
2:35 PM 51.8 °F - 15.8 °F 24% 29.90 in 10.0 mi West 12.7 mph 18.4 mph N/A   Clear
2:55 PM 51.8 °F - 14.0 °F 22% 29.91 in 10.0 mi West 12.7 mph 19.6 mph N/A   Clear
3:15 PM 51.8 °F - 15.8 °F 24% 29.91 in 10.0 mi West 8.1 mph - N/A   Unknown
3:35 PM 51.8 °F - 14.0 °F 22% 29.92 in 10.0 mi West 6.9 mph - N/A   Clear
4:15 PM 50.0 °F - 17.6 °F 28% 29.93 in 10.0 mi SW 8.1 mph - N/A   Clear
4:35 PM 48.2 °F - 17.6 °F 30% 29.95 in 10.0 mi WSW 8.1 mph - N/A   Clear
4:55 PM 46.4 °F 43.5 °F 17.6 °F 32% 29.95 in 10.0 mi West 5.8 mph - N/A   Clear
5:15 PM 44.6 °F 42.2 °F 17.6 °F 34% 29.96 in 10.0 mi SW 4.6 mph - N/A   Clear
5:35 PM 44.6 °F 41.4 °F 17.6 °F 34% 29.98 in 10.0 mi SW 5.8 mph - N/A   Clear
5:55 PM 44.6 °F 41.4 °F 17.6 °F 34% 29.98 in - West 5.8 mph - N/A   Clear
6:15 PM 44.6 °F 41.4 °F 17.6 °F 34% 30.00 in 10.0 mi South 5.8 mph - N/A   Clear
6:35 PM 39.2 °F 35.0 °F 19.4 °F 45% 30.00 in 10.0 mi WSW 5.8 mph - N/A   Clear
6:55 PM 39.2 °F 35.0 °F 19.4 °F 45% 30.01 in 10.0 mi WSW 5.8 mph - N/A   Clear
7:15 PM 41.0 °F 39.0 °F 19.4 °F 42% 30.02 in 10.0 mi SW 3.5 mph - N/A   Clear
7:35 PM 39.2 °F 35.0 °F 19.4 °F 45% 30.02 in 10.0 mi WSW 5.8 mph - N/A   Clear
7:55 PM 39.2 °F 35.0 °F 19.4 °F 45% 30.02 in 10.0 mi West 5.8 mph - N/A   Clear
8:15 PM 39.2 °F - 19.4 °F 45% 30.03 in 10.0 mi North - - N/A   Clear
8:55 PM 39.2 °F 34.2 °F 17.6 °F 42% 30.03 in 10.0 mi West 6.9 mph - N/A   Clear
9:35 PM 41.0 °F 35.8 °F 15.8 °F 36% 30.03 in 10.0 mi West 8.1 mph - N/A   Clear
9:55 PM 39.2 °F 35.0 °F 15.8 °F 39% 30.03 in 10.0 mi West 5.8 mph - N/A   Clear
10:15 PM 39.2 °F 35.0 °F 15.8 °F 39% 30.04 in 10.0 mi WSW 5.8 mph - N/A   Clear
10:35 PM 37.4 °F 34.9 °F 15.8 °F 41% 30.04 in 10.0 mi WSW 3.5 mph - N/A   Clear
10:55 PM 35.6 °F - 15.8 °F 44% 30.05 in 10.0 mi Calm Calm - N/A   Clear
11:15 PM 33.8 °F 30.8 °F 17.6 °F 52% 30.05 in 10.0 mi WSW 3.5 mph - N/A   Clear
11:35 PM 33.8 °F 29.6 °F 17.6 °F 52% 30.05 in 10.0 mi West 4.6 mph - N/A   Clear
11:55 PM 35.6 °F 31.7 °F 15.8 °F 44% 30.06 in 10.0 mi West 4.6 mph - N/A   Clear